| time (UTC) | temp C | wind direction | speed KPH | gust KPH | rain 1hr cm | rain 24hr cm | rain mn cm | humidity % | barometer mb |
| 20260903090048 | 28 | 95 | 14.5 | 19.3 | 0.00 | 0.00 | 0.00 | 38 | 1021.7 |
| 20260903084549 | 27 | 74 | 14.5 | 24.1 | 0.00 | 0.00 | 0.00 | 38 | 1021.7 |
| 20260903083049 | 27 | 73 | 19.3 | 29.0 | 0.00 | 0.00 | 0.00 | 38 | 1021.7 |
| 20260903081549 | 27 | 86 | 14.5 | 22.5 | 0.00 | 0.00 | 0.00 | 39 | 1021.7 |
| 20260903080049 | 27 | 105 | 14.5 | 24.1 | 0.00 | 0.00 | 0.00 | 39 | 1021.7 |
| 20260903074549 | 26 | 98 | 16.1 | 20.9 | 0.00 | 0.00 | 0.00 | 39 | 1021.6 |
| 20260903073048 | 26 | 96 | 12.9 | 19.3 | 0.00 | 0.00 | 0.00 | 40 | 1021.6 |
| 20260903071543 | 26 | 118 | 14.5 | 20.9 | 0.00 | 0.00 | 0.00 | 40 | 1021.4 |
| 20260903070043 | 25 | 100 | 14.5 | 22.5 | 0.00 | 0.00 | 0.00 | 40 | 1021.3 |
| 20260903064543 | 25 | 86 | 11.3 | 19.3 | 0.00 | 0.00 | 0.00 | 40 | 1021.2 |
| 20260903063042 | 25 | 111 | 9.7 | 16.1 | 0.00 | 0.00 | 0.00 | 41 | 1021.1 |
| 20260903062241 | 25 | 117 | 8.0 | 14.5 | 0.00 | 0.00 | 0.00 | 41 | 1020.9 |
| 20260903060043 | 25 | 125 | 6.4 | 12.9 | 0.00 | 0.00 | 0.00 | 41 | 1020.7 |
| 20260903054542 | 25 | 101 | 8.0 | 14.5 | 0.00 | 0.00 | 0.00 | 40 | 1020.6 |
| 20260903053042 | 25 | 135 | 9.7 | 20.9 | 0.00 | 0.00 | 0.00 | 39 | 1020.6 |
| 20260903051543 | 26 | 98 | 12.9 | 20.9 | 0.00 | 0.00 | 0.00 | 38 | 1020.5 |
| 20260903050041 | 25 | 105 | 12.9 | 19.3 | 0.00 | 0.00 | 0.00 | 39 | 1020.3 |
| 20260903044537 | 25 | 98 | 4.8 | 11.3 | 0.00 | 0.00 | 0.00 | 40 | 1020.3 |
| 20260903043037 | 25 | 124 | 6.4 | 12.9 | 0.00 | 0.00 | 0.00 | 38 | 1020.3 |
| 20260903041537 | 25 | 117 | 8.0 | 17.7 | 0.00 | 0.00 | 0.00 | 37 | 1020.3 |
| 20260903040036 | 26 | 147 | 9.7 | 17.7 | 0.00 | 0.00 | 0.00 | 37 | 1020.3 |
| 20260903034537 | 26 | 90 | 12.9 | 20.9 | 0.00 | 0.00 | 0.00 | 37 | 1020.4 |
| 20260903033036 | 25 | 101 | 12.9 | 20.9 | 0.00 | 0.00 | 0.00 | 38 | 1020.3 |
| 20260903031530 | 25 | 98 | 12.9 | 20.9 | 0.00 | 0.00 | 0.00 | 39 | 1020.4 |
| 20260903030031 | 25 | 65 | 8.0 | 17.7 | 0.00 | 0.00 | 0.00 | 41 | 1020.4 |
| 20260903024531 | 25 | 82 | 4.8 | 12.9 | 0.00 | 0.00 | 0.00 | 41 | 1020.5 |
| 20260903023725 | 25 | 99 | 6.4 | 14.5 | 0.00 | 0.00 | 0.00 | 41 | 1020.5 |
| 20260903022219 | 25 | 77 | 9.7 | 14.5 | 0.00 | 0.00 | 0.00 | 41 | 1020.5 |
| 20260903020031 | 25 | 106 | 9.7 | 12.9 | 0.00 | 0.00 | 0.00 | 42 | 1020.6 |
| 20260903014527 | 25 | 126 | 8.0 | 14.5 | 0.00 | 0.00 | 0.00 | 43 | 1020.7 |
| 20260903013718 | 25 | 92 | 8.0 | 14.5 | 0.00 | 0.00 | 0.00 | 46 | 1020.8 |
| 20260903011524 | 23 | 94 | 6.4 | 12.9 | 0.00 | 0.00 | 0.00 | 51 | 1020.8 |
| 20260903010024 | 23 | 128 | 4.8 | 11.3 | 0.00 | 0.00 | 0.00 | 60 | 1021.0 |
| 20260903004524 | 24 | 128 | 3.2 | 8.0 | 0.00 | 0.00 | 0.00 | 56 | 1021.0 |
| 20260903004409 | 24 | 128 | 6.4 | 11.3 | 0.00 | 0.00 | 0.00 | 55 | 1021.0 |
| 20260903001524 | 24 | 128 | 4.8 | 8.0 | 0.00 | 0.00 | 0.00 | 56 | 1021.1 |
| 20260903000024 | 25 | 130 | 6.4 | 12.9 | 0.00 | 0.00 | 0.00 | 56 | 1021.1 |
| 20260902234522 | 25 | 109 | 6.4 | 12.9 | 0.00 | 0.00 | 0.00 | 55 | 1021.1 |
| 20260902233022 | 25 | 132 | 9.7 | 16.1 | 0.00 | 0.00 | 0.00 | 54 | 1021.3 |
| 20260902231522 | 24 | 90 | 6.4 | 16.1 | 0.00 | 0.00 | 0.00 | 57 | 1021.1 |
| 20260902230023 | 23 | 110 | 3.2 | 6.4 | 0.00 | 0.00 | 0.00 | 61 | 1021.0 |
| 20260902224520 | 24 | 110 | 3.2 | 6.4 | 0.00 | 0.00 | 0.00 | 60 | 1021.0 |
| 20260902223019 | 24 | 110 | 3.2 | 6.4 | 0.00 | 0.00 | 0.00 | 58 | 1021.0 |
| 20260902221518 | 24 | 110 | 3.2 | 6.4 | 0.00 | 0.00 | 0.00 | 59 | 1021.0 |
| 20260902220018 | 24 | 110 | 4.8 | 9.7 | 0.00 | 0.00 | 0.00 | 61 | 1021.1 |
| 20260902215218 | 25 | 153 | 1.6 | 6.4 | 0.00 | 0.00 | 0.00 | 57 | 1021.1 |
| 20260902213020 | 25 | 153 | 3.2 | 3.2 | 0.00 | 0.00 | 0.00 | 57 | 1021.2 |
| 20260902211514 | 25 | 153 | 3.2 | 4.8 | 0.00 | 0.00 | 0.00 | 59 | 1021.2 |
| 20260902210012 | 25 | 153 | 3.2 | 8.0 | 0.00 | 0.00 | 0.00 | 59 | 1021.3 |
| 20260902204512 | 25 | 154 | 3.2 | 4.8 | 0.00 | 0.00 | 0.00 | 60 | 1021.2 |
| 20260902203707 | 24 | 154 | 4.8 | 8.0 | 0.00 | 0.00 | 0.00 | 62 | 1021.1 |
| 20260902201510 | 24 | 227 | 3.2 | 4.8 | 0.00 | 0.00 | 0.00 | 63 | 1021.2 |
| 20260902200007 | 25 | 227 | 1.6 | 3.2 | 0.00 | 0.00 | 0.00 | 63 | 1021.0 |
| 20260902194506 | 25 | 227 | 1.6 | 3.2 | 0.00 | 0.00 | 0.00 | 62 | 1020.8 |
| 20260902193004 | 25 | 227 | 4.8 | 8.0 | 0.00 | 0.00 | 0.00 | 61 | 1020.7 |
| 20260902191504 | 26 | 227 | 6.4 | 12.9 | 0.00 | 0.00 | 0.00 | 60 | 1020.6 |
| 20260902190004 | 27 | 236 | 9.7 | 16.1 | 0.00 | 0.00 | 0.00 | 57 | 1020.5 |
| 20260902184502 | 28 | 246 | 8.0 | 12.9 | 0.00 | 0.00 | 0.00 | 53 | 1020.5 |
| 20260902183002 | 28 | 240 | 8.0 | 14.5 | 0.00 | 0.00 | 0.00 | 49 | 1020.6 |
| 20260902181502 | 29 | 266 | 9.7 | 14.5 | 0.00 | 0.00 | 0.00 | 49 | 1020.6 |
| 20260902180000 | 30 | 247 | 9.7 | 16.1 | 0.00 | 0.00 | 0.00 | 49 | 1020.6 |
| 20260902174500 | 30 | 277 | 11.3 | 17.7 | 0.00 | 0.00 | 0.00 | 48 | 1020.4 |
| 20260902172959 | 30 | 267 | 9.7 | 16.1 | 0.00 | 0.00 | 0.00 | 47 | 1020.4 |
| 20260902171459 | 31 | 238 | 9.7 | 17.7 | 0.00 | 0.00 | 0.00 | 45 | 1020.4 |
| 20260902165959 | 31 | 258 | 8.0 | 16.1 | 0.00 | 0.00 | 0.00 | 42 | 1020.4 |
| 20260902164458 | 31 | 284 | 9.7 | 17.7 | 0.00 | 0.00 | 0.00 | 41 | 1020.5 |
| 20260902162958 | 31 | 244 | 11.3 | 17.7 | 0.00 | 0.00 | 0.00 | 39 | 1020.5 |
| 20260902162157 | 32 | 278 | 8.0 | 16.1 | 0.00 | 0.00 | 0.00 | 39 | 1020.6 |
| 20260902155957 | 31 | 322 | 11.3 | 19.3 | 0.00 | 0.00 | 0.00 | 40 | 1020.6 |
| 20260902154457 | 31 | 269 | 9.7 | 20.9 | 0.00 | 0.00 | 0.00 | 41 | 1020.6 |
| 20260902153658 | 31 | 262 | 11.3 | 22.5 | 0.00 | 0.00 | 0.00 | 41 | 1020.7 |
| 20260902151455 | 31 | 254 | 9.7 | 17.7 | 0.00 | 0.00 | 0.00 | 40 | 1020.7 |
| 20260902145953 | 31 | 254 | 9.7 | 17.7 | 0.00 | 0.00 | 0.00 | 42 | 1020.8 |
| 20260902144452 | 31 | 294 | 8.0 | 16.1 | 0.00 | 0.00 | 0.00 | 43 | 1020.8 |
| 20260902142948 | 31 | 272 | 8.0 | 16.1 | 0.00 | 0.00 | 0.00 | 44 | 1020.8 |
| 20260902141447 | 31 | 269 | 9.7 | 14.5 | 0.00 | 0.00 | 0.00 | 45 | 1020.9 |
| 20260902135947 | 30 | 250 | 8.0 | 14.5 | 0.00 | 0.00 | 0.00 | 49 | 1021.0 |
| 20260902134448 | 30 | 295 | 8.0 | 17.7 | 0.00 | 0.00 | 0.00 | 48 | 1021.1 |
| 20260902132947 | 30 | 250 | 8.0 | 16.1 | 0.00 | 0.00 | 0.00 | 49 | 1021.2 |
| 20260902131453 | 30 | 236 | 6.4 | 14.5 | 0.00 | 0.00 | 0.00 | 51 | 1021.3 |
| 20260902125941 | 29 | 234 | 8.0 | 16.1 | 0.00 | 0.00 | 0.00 | 53 | 1021.3 |
| 20260902124439 | 28 | 204 | 6.4 | 17.7 | 0.00 | 0.00 | 0.00 | 53 | 1021.4 |
| 20260902122939 | 28 | 238 | 6.4 | 14.5 | 0.00 | 0.00 | 0.00 | 54 | 1021.6 |
| 20260902121439 | 28 | 240 | 8.0 | 12.9 | 0.00 | 0.00 | 0.00 | 55 | 1021.7 |
| 20260902120635 | 27 | 270 | 8.0 | 14.5 | 0.00 | 0.00 | 0.00 | 56 | 1021.8 |
| 20260902114439 | 27 | 226 | 8.0 | 14.5 | 0.00 | 0.00 | 0.00 | 56 | 1022.0 |
| 20260902112939 | 27 | 229 | 6.4 | 12.9 | 0.00 | 0.00 | 0.00 | 57 | 1022.1 |
| 20260902111439 | 26 | 247 | 6.4 | 11.3 | 0.00 | 0.00 | 0.00 | 60 | 1022.1 |
| 20260902110643 | 26 | 240 | 4.8 | 11.3 | 0.00 | 0.00 | 0.00 | 60 | 1022.2 |
| 20260902104439 | 25 | 245 | 3.2 | 11.3 | 0.00 | 0.00 | 0.00 | 61 | 1022.2 |
| 20260902102937 | 25 | 238 | 3.2 | 8.0 | 0.00 | 0.00 | 0.00 | 64 | 1022.2 |
| 20260902101435 | 25 | 248 | 3.2 | 6.4 | 0.00 | 0.00 | 0.00 | 63 | 1022.2 |
| 20260902095934 | 23 | 246 | 3.2 | 6.4 | 0.00 | 0.00 | 0.00 | 67 | 1022.2 |
| 20260902095143 | 23 | 244 | 4.8 | 8.0 | 0.00 | 0.00 | 0.00 | 66 | 1022.2 |
| 20260902092935 | 23 | 248 | 4.8 | 8.0 | 0.00 | 0.00 | 0.00 | 67 | 1022.2 |
| 20260902091434 | 23 | 194 | 3.2 | 6.4 | 0.00 | 0.00 | 0.00 | 69 | 1021.9 |